Location: Archemont
(49.1579°N, 1.7598°E)
Time: 09:16:01
(UTC+00:00)

Altair - Pass Details

Date: 21 April 2024
Orbit: 1501 x 1682 km, 47.2° (Epoch: 17 May)

Event Time Altitude Azimuth Distance (km) Brightness Sun altitude
Rises 17:00:28 0° 200° (SSW) 4,921 10.4 17.5°
Reaches altitude 10° 17:04:11 10° 190° (S) 3,929 9.8 16.9°
Maximum altitude 17:12:21 29° 135° (SE) 2,688 8.6 15.6°
Drops below altitude 10° 17:20:21 10° 80° (E) 3,861 9.1 14.3°
Sets 17:23:57 0° 70° (ENE) 4,823 9.5 13.7°
